THOR ABLESTAR DEB, 645

Orbit data source: Space-Track

THOR ABLESTAR DEB, 645 is space debris in LEO originally from a launch on Thu, 29 Jun 1961 UTC launched from the Air Force Eastern Test Range (AFETR). Debris objects in space refer to the collection of defunct objects orbiting the Earth. Examples of debris include non-operational satellites, rocket bodies, and fragments generated from explosions, collisions, or faulty payload assembly.

Loading next visibility...
Identifier
645, 1961-015GW
Orbit
LEO
Country
Flag of USUS
Related business
Manufacturer
Unknown
Mission
Spacecraft
Bus & Motor
Unknown
Mass
Unknown
Launch date (UTC)
1961-06-29 (64 years ago)
Launch vehicle
Unknown
Launch site
Air Force Eastern Test Range (AFETR)
Object type
Payload
Rocket body
Debris
Shape & HBR
Unknown shape, 0.1 m
Radar Cross Section
Small (<0.1 m²)

Expand to show TLE details & history
Last TLE update: 1 day ago

TLE from 1 day ago
0 THOR ABLESTAR DEB
1 00645U 61015GW  25310.45444334  .00000414  00000-0  97563-3 0  9992
2 00645  66.5879 337.9374 0417294 256.9949 212.7111 13.04763241 50758
Epoch: 2025-11-06T10:54Z
TLE epoch observation values (Epoch: 2025-11-06T10:54:23.904Z)
Latitude
61.32688°
Longitude
-103.56651°
Altitude
1,524.426 km
Speed
6.981 km/s
True Right ascension
07h 03m 46s
True Declination
61° 11' 45"
Sunlit
Object was in daylight at epoch
Visualization orbit readout
Latitude
Unknown
Longitude
Unknown
Altitude
Unknown
Speed
Unknown
Apparent Right ascension
Unknown
Apparent Declination
Unknown
Sunlit
N/A
Visualization observer readout
Local Sidereal Time
13:52:24
Azimuth
Unknown
Elevation
Unknown
Doppler factor
Unknown
Orbital elements
Apogee altitude
1,559.947 km
Perigee altitude
923.982 km
Semi-major axis
7,620.101 km
Eccentricity
0.04173
Inclination
66.5879°
RAAN
337.9374°
Arg. of periapsis
256.9949°
True anomaly
210.23656°
Mean anomaly
212.7111°
Eccentric anomaly
211.46316°
Mean motion
3.26289 °/min
Orbital period
110.33 mins
BSTAR
0.00097563
Loading maneuver chart data...
Computing Atmospheric mass density...

Documentation

Showing up to 5 results
|